contact:dominique.lefevre@mio.osupytheas.fr, maurice.libes@osupytheas.fr, didier.mallarino@osupytheas.fr
Project:EMSO http://www.emso-fr.org/EMSO-France
Depth: 2436.0 m
Title:EMSO Ligure Ouest : Data MII capteur MICROCAT
DateTime_Computer,Latitude,Longitude,Temperature,Conductivity,Pressure,DateTime_Instrument
DateTime_Computer,Latitude,Longitude,degC,S m-1,dbar,DateTime_Instrument
2022-01-15T00:00:58Z,42.805,6.029,13.2996,4.60022,2470.063,2022-1-15T02:02:29Z
2022-01-15T00:04:01Z,42.805,6.029,13.2996,4.60021,2470.049,2022-1-15T02:05:32Z
2022-01-15T00:07:04Z,42.805,6.029,13.3002,4.60021,2470.053,2022-1-15T02:08:35Z
2022-01-15T00:10:08Z,42.805,6.029,13.2997,4.60022,2470.087,2022-1-15T02:11:38Z
2022-01-15T00:13:11Z,42.805,6.029,13.2998,4.60021,2470.077,2022-1-15T02:14:42Z
2022-01-15T00:16:14Z,42.805,6.029,13.2997,4.60021,2470.1,2022-1-15T02:17:45Z
2022-01-15T00:19:17Z,42.805,6.029,13.2997,4.60021,2470.063,2022-1-15T02:20:48Z
2022-01-15T00:22:20Z,42.805,6.029,13.2996,4.60021,2470.063,2022-1-15T02:23:51Z
2022-01-15T00:25:23Z,42.805,6.029,13.2998,4.60022,2470.063,2022-1-15T02:26:54Z
2022-01-15T00:28:26Z,42.805,6.029,13.2996,4.60021,2470.053,2022-1-15T02:29:57Z
2022-01-15T00:31:29Z,42.805,6.029,13.2993,4.60023,2470.063,2022-1-15T02:33:00Z
2022-01-15T00:34:32Z,42.805,6.029,13.2998,4.60022,2470.063,2022-1-15T02:36:03Z
2022-01-15T00:37:36Z,42.805,6.029,13.2995,4.60023,2470.1,2022-1-15T02:39:07Z
2022-01-15T00:40:39Z,42.805,6.029,13.2995,4.60021,2470.026,2022-1-15T02:42:10Z
2022-01-15T00:43:42Z,42.805,6.029,13.2998,4.60022,2470.04,2022-1-15T02:45:13Z
2022-01-15T00:46:45Z,42.805,6.029,13.2999,4.60022,2470.11,2022-1-15T02:48:16Z
2022-01-15T00:49:48Z,42.805,6.029,13.2999,4.60021,2470.1,2022-1-15T02:51:19Z
2022-01-15T00:52:51Z,42.805,6.029,13.3000,4.60022,2470.063,2022-1-15T02:54:22Z
2022-01-15T00:55:54Z,42.805,6.029,13.2996,4.60021,2470.063,2022-1-15T02:57:25Z
2022-01-15T00:58:57Z,42.805,6.029,13.2997,4.60022,2470.087,2022-1-15T03:00:28Z
2022-01-15T01:02:01Z,42.805,6.029,13.2997,4.60024,2470.063,2022-1-15T03:03:32Z
2022-01-15T01:05:04Z,42.805,6.029,13.2997,4.60022,2470.087,2022-1-15T03:06:35Z
2022-01-15T01:08:07Z,42.805,6.029,13.2996,4.60021,2470.1,2022-1-15T03:09:38Z
2022-01-15T01:11:10Z,42.805,6.029,13.2995,4.60022,2470.11,2022-1-15T03:12:41Z
2022-01-15T01:14:13Z,42.805,6.029,13.2998,4.60021,2470.087,2022-1-15T03:15:44Z
2022-01-15T01:17:16Z,42.805,6.029,13.2996,4.60022,2470.087,2022-1-15T03:18:47Z
2022-01-15T01:20:19Z,42.805,6.029,13.2998,4.60022,2470.124,2022-1-15T03:21:50Z
2022-01-15T01:23:22Z,42.805,6.029,13.2999,4.60021,2470.147,2022-1-15T03:24:53Z
2022-01-15T01:26:26Z,42.805,6.029,13.2998,4.60022,2470.11,2022-1-15T03:27:57Z
2022-01-15T01:29:29Z,42.805,6.029,13.2996,4.60022,2470.124,2022-1-15T03:31:00Z
2022-01-15T01:32:32Z,42.805,6.029,13.2999,4.60021,2470.156,2022-1-15T03:34:03Z
2022-01-15T01:35:35Z,42.805,6.029,13.2998,4.60021,2470.11,2022-1-15T03:37:06Z
2022-01-15T01:38:38Z,42.805,6.029,13.3000,4.60021,2470.11,2022-1-15T03:40:09Z
2022-01-15T01:41:41Z,42.805,6.029,13.3003,4.60024,2470.1,2022-1-15T03:43:12Z
2022-01-15T01:44:44Z,42.805,6.029,13.2998,4.60021,2470.11,2022-1-15T03:46:15Z
2022-01-15T01:47:47Z,42.805,6.029,13.2997,4.60022,2470.147,2022-1-15T03:49:18Z
2022-01-15T01:50:51Z,42.805,6.029,13.2999,4.60021,2470.133,2022-1-15T03:52:22Z
2022-01-15T01:53:54Z,42.805,6.029,13.2997,4.60021,2470.147,2022-1-15T03:55:25Z
2022-01-15T01:56:57Z,42.805,6.029,13.2997,4.60021,2470.133,2022-1-15T03:58:28Z
2022-01-15T02:00:00Z,42.805,6.029,13.2997,4.60021,2470.171,2022-1-15T04:01:31Z
2022-01-15T02:03:03Z,42.805,6.029,13.2996,4.60023,2470.156,2022-1-15T04:04:34Z
2022-01-15T02:06:06Z,42.805,6.029,13.2996,4.60021,2470.156,2022-1-15T04:07:37Z
2022-01-15T02:09:09Z,42.805,6.029,13.2999,4.60022,2470.171,2022-1-15T04:10:40Z
2022-01-15T02:12:12Z,42.805,6.029,13.2998,4.60021,2470.18,2022-1-15T04:13:43Z
2022-01-15T02:15:16Z,42.805,6.029,13.2998,4.60021,2470.156,2022-1-15T04:16:47Z
2022-01-15T02:18:19Z,42.805,6.029,13.3000,4.60022,2470.133,2022-1-15T04:19:50Z
2022-01-15T02:21:22Z,42.805,6.029,13.2997,4.60022,2470.156,2022-1-15T04:22:53Z
2022-01-15T02:24:25Z,42.805,6.029,13.2996,4.60020,2470.156,2022-1-15T04:25:56Z
2022-01-15T02:27:28Z,42.805,6.029,13.2996,4.60022,2470.156,2022-1-15T04:28:59Z
2022-01-15T02:30:31Z,42.805,6.029,13.2994,4.60020,2470.18,2022-1-15T04:32:02Z
2022-01-15T02:33:34Z,42.805,6.029,13.2996,4.60021,2470.194,2022-1-15T04:35:05Z
2022-01-15T02:36:37Z,42.805,6.029,13.2996,4.60021,2470.18,2022-1-15T04:38:08Z
2022-01-15T02:39:41Z,42.805,6.029,13.2998,4.60020,2470.18,2022-1-15T04:41:12Z
2022-01-15T02:42:44Z,42.805,6.029,13.2993,4.60020,2470.156,2022-1-15T04:44:15Z
2022-01-15T02:45:47Z,42.805,6.029,13.2998,4.60021,2470.156,2022-1-15T04:47:18Z
2022-01-15T02:48:50Z,42.805,6.029,13.2998,4.60021,2470.156,2022-1-15T04:50:21Z
2022-01-15T02:51:53Z,42.805,6.029,13.2997,4.60019,2470.194,2022-1-15T04:53:24Z
2022-01-15T02:54:56Z,42.805,6.029,13.2996,4.60020,2470.203,2022-1-15T04:56:27Z
2022-01-15T02:57:59Z,42.805,6.029,13.2994,4.60020,2470.203,2022-1-15T04:59:30Z
2022-01-15T03:01:02Z,42.805,6.029,13.2995,4.60021,2470.194,2022-1-15T05:02:33Z
2022-01-15T03:04:05Z,42.805,6.029,13.2996,4.60020,2470.203,2022-1-15T05:05:36Z
2022-01-15T03:07:09Z,42.805,6.029,13.2993,4.60021,2470.217,2022-1-15T05:08:40Z
2022-01-15T03:10:12Z,42.805,6.029,13.2994,4.60019,2470.203,2022-1-15T05:11:43Z
2022-01-15T03:13:15Z,42.805,6.029,13.2993,4.60019,2470.203,2022-1-15T05:14:46Z
2022-01-15T03:16:18Z,42.805,6.029,13.2995,4.60019,2470.227,2022-1-15T05:17:49Z
2022-01-15T03:19:21Z,42.805,6.029,13.2994,4.60021,2470.227,2022-1-15T05:20:52Z
2022-01-15T03:22:24Z,42.805,6.029,13.2998,4.60021,2470.227,2022-1-15T05:23:55Z
2022-01-15T03:25:27Z,42.805,6.029,13.2998,4.60019,2470.203,2022-1-15T05:26:58Z
2022-01-15T03:28:30Z,42.805,6.029,13.2998,4.60019,2470.25,2022-1-15T05:30:01Z
2022-01-15T03:31:34Z,42.805,6.029,13.2991,4.60021,2470.227,2022-1-15T05:33:05Z
2022-01-15T03:34:37Z,42.805,6.029,13.2994,4.60019,2470.25,2022-1-15T05:36:08Z
2022-01-15T03:37:40Z,42.805,6.029,13.2997,4.60019,2470.25,2022-1-15T05:39:11Z
2022-01-15T03:40:43Z,42.805,6.029,13.2996,4.60019,2470.236,2022-1-15T05:42:14Z
2022-01-15T03:43:46Z,42.805,6.029,13.2993,4.60019,2470.194,2022-1-15T05:45:17Z
2022-01-15T03:46:49Z,42.805,6.029,13.2995,4.60020,2470.25,2022-1-15T05:48:20Z
2022-01-15T03:49:52Z,42.805,6.029,13.2995,4.60021,2470.25,2022-1-15T05:51:23Z
2022-01-15T03:52:55Z,42.805,6.029,13.2992,4.60019,2470.227,2022-1-15T05:54:26Z
2022-01-15T03:55:59Z,42.805,6.029,13.2997,4.60020,2470.227,2022-1-15T05:57:30Z
2022-01-15T03:59:02Z,42.805,6.029,13.2995,4.60020,2470.25,2022-1-15T06:00:33Z
2022-01-15T04:02:05Z,42.805,6.029,13.2997,4.60019,2470.273,2022-1-15T06:03:36Z
2022-01-15T04:05:08Z,42.805,6.029,13.2996,4.60020,2470.273,2022-1-15T06:06:39Z
2022-01-15T04:08:11Z,42.805,6.029,13.2996,4.60019,2470.227,2022-1-15T06:09:42Z
2022-01-15T04:11:14Z,42.805,6.029,13.2997,4.60019,2470.273,2022-1-15T06:12:45Z
2022-01-15T04:14:17Z,42.805,6.029,13.2996,4.60020,2470.25,2022-1-15T06:15:48Z
2022-01-15T04:17:20Z,42.805,6.029,13.2996,4.60022,2470.25,2022-1-15T06:18:51Z
2022-01-15T04:20:24Z,42.805,6.029,13.2996,4.60020,2470.264,2022-1-15T06:21:55Z
2022-01-15T04:23:27Z,42.805,6.029,13.2994,4.60019,2470.264,2022-1-15T06:24:58Z
2022-01-15T04:26:30Z,42.805,6.029,13.2996,4.60019,2470.273,2022-1-15T06:28:01Z
2022-01-15T04:29:33Z,42.805,6.029,13.2995,4.60020,2470.334,2022-1-15T06:31:04Z
2022-01-15T04:32:36Z,42.805,6.029,13.2997,4.60019,2470.273,2022-1-15T06:34:07Z
2022-01-15T04:35:39Z,42.805,6.029,13.2991,4.60019,2470.297,2022-1-15T06:37:10Z
2022-01-15T04:38:42Z,42.805,6.029,13.2993,4.60021,2470.264,2022-1-15T06:40:13Z
2022-01-15T04:41:45Z,42.805,6.029,13.2996,4.60019,2470.297,2022-1-15T06:43:16Z
2022-01-15T04:44:49Z,42.805,6.029,13.2995,4.60019,2470.273,2022-1-15T06:46:20Z
2022-01-15T04:47:52Z,42.805,6.029,13.2998,4.60019,2470.273,2022-1-15T06:49:23Z
2022-01-15T04:50:55Z,42.805,6.029,13.2992,4.60019,2470.287,2022-1-15T06:52:26Z
2022-01-15T04:53:58Z,42.805,6.029,13.2991,4.60019,2470.334,2022-1-15T06:55:29Z
2022-01-15T04:57:01Z,42.805,6.029,13.2996,4.60020,2470.297,2022-1-15T06:58:32Z
2022-01-15T05:00:04Z,42.805,6.029,13.2995,4.60019,2470.31,2022-1-15T07:01:35Z
2022-01-15T05:03:07Z,42.805,6.029,13.2992,4.60019,2470.32,2022-1-15T07:04:38Z
2022-01-15T05:06:10Z,42.805,6.029,13.2998,4.60021,2470.31,2022-1-15T07:07:41Z
2022-01-15T05:09:14Z,42.805,6.029,13.2992,4.60019,2470.297,2022-1-15T07:10:45Z
2022-01-15T05:12:17Z,42.805,6.029,13.2996,4.60020,2470.32,2022-1-15T07:13:48Z
2022-01-15T05:15:20Z,42.805,6.029,13.2992,4.60019,2470.297,2022-1-15T07:16:51Z
2022-01-15T05:18:23Z,42.805,6.029,13.2993,4.60020,2470.334,2022-1-15T07:19:54Z
2022-01-15T05:21:26Z,42.805,6.029,13.2998,4.60019,2470.334,2022-1-15T07:22:57Z
2022-01-15T05:24:29Z,42.805,6.029,13.2994,4.60021,2470.32,2022-1-15T07:26:00Z
2022-01-15T05:27:32Z,42.805,6.029,13.2994,4.60019,2470.297,2022-1-15T07:29:03Z
2022-01-15T05:30:35Z,42.805,6.029,13.2994,4.60019,2470.32,2022-1-15T07:32:06Z
2022-01-15T05:33:39Z,42.805,6.029,13.2995,4.60019,2470.32,2022-1-15T07:35:10Z
2022-01-15T05:36:42Z,42.805,6.029,13.2993,4.60019,2470.334,2022-1-15T07:38:13Z
2022-01-15T05:39:45Z,42.805,6.029,13.2993,4.60019,2470.334,2022-1-15T07:41:16Z
2022-01-15T05:42:48Z,42.805,6.029,13.2994,4.60019,2470.306,2022-1-15T07:44:19Z
2022-01-15T05:45:51Z,42.805,6.029,13.2995,4.60019,2470.297,2022-1-15T07:47:22Z
2022-01-15T05:48:54Z,42.805,6.029,13.2991,4.60019,2470.32,2022-1-15T07:50:25Z
2022-01-15T05:51:57Z,42.805,6.029,13.2997,4.60019,2470.357,2022-1-15T07:53:28Z
2022-01-15T05:55:00Z,42.805,6.029,13.2994,4.60020,2470.32,2022-1-15T07:56:31Z
2022-01-15T05:58:04Z,42.805,6.029,13.2991,4.60020,2470.366,2022-1-15T07:59:35Z
2022-01-15T06:01:07Z,42.805,6.029,13.2997,4.60019,2470.31,2022-1-15T08:02:38Z
2022-01-15T06:04:10Z,42.805,6.029,13.2993,4.60020,2470.343,2022-1-15T08:05:41Z
2022-01-15T06:07:13Z,42.805,6.029,13.2995,4.60019,2470.32,2022-1-15T08:08:44Z
2022-01-15T06:10:16Z,42.805,6.029,13.2993,4.60019,2470.297,2022-1-15T08:11:47Z
2022-01-15T06:13:19Z,42.805,6.029,13.2995,4.60019,2470.343,2022-1-15T08:14:50Z
2022-01-15T06:16:22Z,42.805,6.029,13.2998,4.60019,2470.32,2022-1-15T08:17:53Z
2022-01-15T06:19:25Z,42.805,6.029,13.2993,4.60020,2470.297,2022-1-15T08:20:56Z
2022-01-15T06:22:28Z,42.805,6.029,13.2996,4.60019,2470.343,2022-1-15T08:23:59Z
2022-01-15T06:25:32Z,42.805,6.029,13.2995,4.60020,2470.334,2022-1-15T08:27:03Z
2022-01-15T06:28:35Z,42.805,6.029,13.2996,4.60021,2470.334,2022-1-15T08:30:06Z
2022-01-15T06:31:38Z,42.805,6.029,13.2996,4.60019,2470.32,2022-1-15T08:33:09Z
2022-01-15T06:34:41Z,42.805,6.029,13.2993,4.60020,2470.32,2022-1-15T08:36:12Z
2022-01-15T06:37:44Z,42.805,6.029,13.2993,4.60020,2470.32,2022-1-15T08:39:15Z
2022-01-15T06:40:47Z,42.805,6.029,13.2993,4.60020,2470.357,2022-1-15T08:42:18Z
2022-01-15T06:43:50Z,42.805,6.029,13.2993,4.60021,2470.31,2022-1-15T08:45:21Z
2022-01-15T06:46:53Z,42.805,6.029,13.2998,4.60020,2470.32,2022-1-15T08:48:24Z
2022-01-15T06:49:57Z,42.805,6.029,13.2997,4.60021,2470.343,2022-1-15T08:51:28Z
2022-01-15T06:53:00Z,42.805,6.029,13.2994,4.60021,2470.31,2022-1-15T08:54:31Z
2022-01-15T06:56:03Z,42.805,6.029,13.2994,4.60021,2470.297,2022-1-15T08:57:34Z
2022-01-15T06:59:06Z,42.805,6.029,13.2996,4.60021,2470.32,2022-1-15T09:00:37Z
2022-01-15T07:02:09Z,42.805,6.029,13.2993,4.60021,2470.32,2022-1-15T09:03:40Z
2022-01-15T07:05:12Z,42.805,6.029,13.2999,4.60022,2470.32,2022-1-15T09:06:43Z
2022-01-15T07:08:15Z,42.805,6.029,13.2999,4.60021,2470.343,2022-1-15T09:09:46Z
2022-01-15T07:11:18Z,42.805,6.029,13.2997,4.60021,2470.366,2022-1-15T09:12:49Z
2022-01-15T07:14:22Z,42.805,6.029,13.2999,4.60021,2470.343,2022-1-15T09:15:53Z
2022-01-15T07:17:25Z,42.805,6.029,13.2993,4.60021,2470.343,2022-1-15T09:18:56Z
2022-01-15T07:20:28Z,42.805,6.029,13.2999,4.60021,2470.38,2022-1-15T09:21:59Z
2022-01-15T07:23:31Z,42.805,6.029,13.2998,4.60021,2470.32,2022-1-15T09:25:02Z
2022-01-15T07:26:34Z,42.805,6.029,13.2996,4.60021,2470.38,2022-1-15T09:28:05Z
2022-01-15T07:29:37Z,42.805,6.029,13.2998,4.60021,2470.343,2022-1-15T09:31:08Z
2022-01-15T07:32:40Z,42.805,6.029,13.2995,4.60021,2470.32,2022-1-15T09:34:11Z
2022-01-15T07:35:43Z,42.805,6.029,13.2997,4.60022,2470.297,2022-1-15T09:37:14Z
2022-01-15T07:38:47Z,42.805,6.029,13.2998,4.60021,2470.343,2022-1-15T09:40:18Z
2022-01-15T07:41:50Z,42.805,6.029,13.2997,4.60021,2470.343,2022-1-15T09:43:21Z
2022-01-15T07:44:53Z,42.805,6.029,13.2996,4.60021,2470.297,2022-1-15T09:46:24Z
2022-01-15T07:47:56Z,42.805,6.029,13.2997,4.60021,2470.32,2022-1-15T09:49:27Z
2022-01-15T07:50:59Z,42.805,6.029,13.2996,4.60021,2470.31,2022-1-15T09:52:30Z
2022-01-15T07:54:02Z,42.805,6.029,13.3000,4.60021,2470.343,2022-1-15T09:55:33Z
2022-01-15T07:57:05Z,42.805,6.029,13.2996,4.60022,2470.343,2022-1-15T09:58:36Z
2022-01-15T08:00:08Z,42.805,6.029,13.2996,4.60021,2470.357,2022-1-15T10:01:39Z
2022-01-15T08:03:12Z,42.805,6.029,13.2998,4.60021,2470.343,2022-1-15T10:04:43Z
2022-01-15T08:06:15Z,42.805,6.029,13.2996,4.60021,2470.31,2022-1-15T10:07:46Z
2022-01-15T08:09:18Z,42.805,6.029,13.2998,4.60021,2470.32,2022-1-15T10:10:49Z
2022-01-15T08:12:21Z,42.805,6.029,13.2997,4.60020,2470.32,2022-1-15T10:13:52Z
2022-01-15T08:15:24Z,42.805,6.029,13.2998,4.60021,2470.297,2022-1-15T10:16:55Z
2022-01-15T08:18:27Z,42.805,6.029,13.2997,4.60021,2470.343,2022-1-15T10:19:58Z
2022-01-15T08:21:30Z,42.805,6.029,13.2994,4.60021,2470.347,2022-1-15T10:23:01Z
2022-01-15T08:24:33Z,42.805,6.029,13.2993,4.60020,2470.343,2022-1-15T10:26:04Z
2022-01-15T08:27:37Z,42.805,6.029,13.2997,4.60021,2470.273,2022-1-15T10:29:08Z
2022-01-15T08:30:40Z,42.805,6.029,13.2993,4.60021,2470.32,2022-1-15T10:32:11Z
2022-01-15T08:33:43Z,42.805,6.029,13.2996,4.60020,2470.31,2022-1-15T10:35:14Z
2022-01-15T08:36:46Z,42.805,6.029,13.2998,4.60019,2470.297,2022-1-15T10:38:17Z
2022-01-15T08:39:49Z,42.805,6.029,13.2992,4.60020,2470.343,2022-1-15T10:41:20Z
2022-01-15T08:42:52Z,42.805,6.029,13.2996,4.60020,2470.334,2022-1-15T10:44:23Z
2022-01-15T08:45:55Z,42.805,6.029,13.2995,4.60021,2470.31,2022-1-15T10:47:26Z
2022-01-15T08:48:58Z,42.805,6.029,13.2998,4.60021,2470.31,2022-1-15T10:50:29Z
2022-01-15T08:52:02Z,42.805,6.029,13.2994,4.60020,2470.334,2022-1-15T10:53:33Z
2022-01-15T08:55:05Z,42.805,6.029,13.2995,4.60021,2470.31,2022-1-15T10:56:36Z
2022-01-15T08:58:08Z,42.805,6.029,13.2990,4.60021,2470.334,2022-1-15T10:59:39Z
2022-01-15T09:01:11Z,42.805,6.029,13.2995,4.60019,2470.334,2022-1-15T11:02:42Z
2022-01-15T09:04:14Z,42.805,6.029,13.2993,4.60020,2470.31,2022-1-15T11:05:45Z
2022-01-15T09:07:17Z,42.805,6.029,13.2993,4.60020,2470.297,2022-1-15T11:08:48Z
2022-01-15T09:10:20Z,42.805,6.029,13.2998,4.60021,2470.297,2022-1-15T11:11:51Z
2022-01-15T09:13:23Z,42.805,6.029,13.2997,4.60020,2470.297,2022-1-15T11:14:54Z
2022-01-15T09:16:27Z,42.805,6.029,13.2995,4.60020,2470.32,2022-1-15T11:17:58Z
2022-01-15T09:19:30Z,42.805,6.029,13.2994,4.60019,2470.31,2022-1-15T11:21:01Z
2022-01-15T09:22:33Z,42.805,6.029,13.2998,4.60019,2470.297,2022-1-15T11:24:04Z
2022-01-15T09:25:36Z,42.805,6.029,13.2996,4.60020,2470.273,2022-1-15T11:27:07Z
2022-01-15T09:28:39Z,42.805,6.029,13.2998,4.60019,2470.264,2022-1-15T11:30:10Z
2022-01-15T09:31:42Z,42.805,6.029,13.2992,4.60020,2470.32,2022-1-15T11:33:13Z
2022-01-15T09:34:45Z,42.805,6.029,13.2997,4.60020,2470.297,2022-1-15T11:36:16Z
2022-01-15T09:37:49Z,42.805,6.029,13.2996,4.60020,2470.273,2022-1-15T11:39:20Z
2022-01-15T09:40:52Z,42.805,6.029,13.2993,4.60019,2470.297,2022-1-15T11:42:23Z
2022-01-15T09:43:55Z,42.805,6.029,13.2993,4.60019,2470.31,2022-1-15T11:45:26Z
2022-01-15T09:46:58Z,42.805,6.029,13.2994,4.60021,2470.297,2022-1-15T11:48:29Z
2022-01-15T09:50:01Z,42.805,6.029,13.2994,4.60019,2470.287,2022-1-15T11:51:32Z
2022-01-15T09:53:04Z,42.805,6.029,13.2995,4.60019,2470.31,2022-1-15T11:54:35Z
2022-01-15T09:56:07Z,42.805,6.029,13.2995,4.60019,2470.31,2022-1-15T11:57:38Z
2022-01-15T09:59:10Z,42.805,6.029,13.2992,4.60021,2470.297,2022-1-15T12:00:41Z
2022-01-15T10:02:14Z,42.805,6.029,13.2997,4.60020,2470.31,2022-1-15T12:03:45Z
2022-01-15T10:05:17Z,42.805,6.029,13.2996,4.60019,2470.273,2022-1-15T12:06:48Z
2022-01-15T10:08:20Z,42.805,6.029,13.2995,4.60019,2470.31,2022-1-15T12:09:51Z
2022-01-15T10:11:23Z,42.805,6.029,13.2991,4.60019,2470.273,2022-1-15T12:12:54Z
2022-01-15T10:14:26Z,42.805,6.029,13.2997,4.60019,2470.273,2022-1-15T12:15:57Z
2022-01-15T10:17:29Z,42.805,6.029,13.2995,4.60019,2470.287,2022-1-15T12:19:00Z
2022-01-15T10:20:32Z,42.805,6.029,13.2998,4.60019,2470.273,2022-1-15T12:22:03Z
2022-01-15T10:23:35Z,42.805,6.029,13.2993,4.60019,2470.25,2022-1-15T12:25:06Z
2022-01-15T10:26:39Z,42.805,6.029,13.2993,4.60019,2470.236,2022-1-15T12:28:10Z
2022-01-15T10:29:42Z,42.805,6.029,13.2995,4.60021,2470.273,2022-1-15T12:31:13Z
2022-01-15T10:32:45Z,42.805,6.029,13.2997,4.60019,2470.264,2022-1-15T12:34:16Z
2022-01-15T10:35:48Z,42.805,6.029,13.2999,4.60019,2470.297,2022-1-15T12:37:19Z
2022-01-15T10:38:51Z,42.805,6.029,13.2995,4.60019,2470.25,2022-1-15T12:40:22Z
2022-01-15T10:41:54Z,42.805,6.029,13.2997,4.60019,2470.273,2022-1-15T12:43:25Z
2022-01-15T10:44:57Z,42.805,6.029,13.2996,4.60019,2470.273,2022-1-15T12:46:28Z
2022-01-15T10:48:00Z,42.805,6.029,13.2994,4.60019,2470.287,2022-1-15T12:49:31Z
2022-01-15T10:51:04Z,42.805,6.029,13.2993,4.60019,2470.273,2022-1-15T12:52:35Z
2022-01-15T10:54:07Z,42.805,6.029,13.2995,4.60019,2470.25,2022-1-15T12:55:38Z
2022-01-15T10:57:10Z,42.805,6.029,13.2991,4.60019,2470.264,2022-1-15T12:58:41Z
2022-01-15T11:00:13Z,42.805,6.029,13.2996,4.60019,2470.287,2022-1-15T13:01:44Z
2022-01-15T11:03:16Z,42.805,6.029,13.2995,4.60019,2470.227,2022-1-15T13:04:47Z
2022-01-15T11:06:19Z,42.805,6.029,13.2996,4.60019,2470.227,2022-1-15T13:07:50Z
2022-01-15T11:09:22Z,42.805,6.029,13.2995,4.60018,2470.25,2022-1-15T13:10:53Z
2022-01-15T11:12:25Z,42.805,6.029,13.2995,4.60018,2470.25,2022-1-15T13:13:56Z
2022-01-15T11:15:29Z,42.805,6.029,13.2995,4.60018,2470.264,2022-1-15T13:17:00Z
2022-01-15T11:18:32Z,42.805,6.029,13.2994,4.60019,2470.287,2022-1-15T13:20:03Z
2022-01-15T11:21:35Z,42.805,6.029,13.2996,4.60019,2470.25,2022-1-15T13:23:06Z
2022-01-15T11:24:38Z,42.805,6.029,13.2993,4.60020,2470.25,2022-1-15T13:26:09Z
2022-01-15T11:27:41Z,42.805,6.029,13.2991,4.60019,2470.227,2022-1-15T13:29:12Z
2022-01-15T11:30:44Z,42.805,6.029,13.2993,4.60017,2470.25,2022-1-15T13:32:15Z
2022-01-15T11:33:47Z,42.805,6.029,13.2995,4.60019,2470.227,2022-1-15T13:35:18Z
2022-01-15T11:36:50Z,42.805,6.029,13.2995,4.60019,2470.25,2022-1-15T13:38:21Z
2022-01-15T11:39:54Z,42.805,6.029,13.2993,4.60019,2470.273,2022-1-15T13:41:25Z
2022-01-15T11:42:57Z,42.805,6.029,13.2997,4.60019,2470.25,2022-1-15T13:44:28Z
2022-01-15T11:46:00Z,42.805,6.029,13.2996,4.60019,2470.24,2022-1-15T13:47:31Z
2022-01-15T11:49:03Z,42.805,6.029,13.2996,4.60019,2470.25,2022-1-15T13:50:34Z
2022-01-15T11:52:06Z,42.805,6.029,13.2991,4.60019,2470.264,2022-1-15T13:53:37Z
2022-01-15T11:55:09Z,42.805,6.029,13.2993,4.60018,2470.227,2022-1-15T13:56:40Z
2022-01-15T11:58:12Z,42.805,6.029,13.2992,4.60019,2470.24,2022-1-15T13:59:43Z
2022-01-15T12:01:16Z,42.805,6.029,13.2992,4.60019,2470.24,2022-1-15T14:02:47Z
2022-01-15T12:04:19Z,42.805,6.029,13.2996,4.60019,2470.25,2022-1-15T14:05:50Z
2022-01-15T12:07:22Z,42.805,6.029,13.2998,4.60019,2470.24,2022-1-15T14:08:53Z
2022-01-15T12:10:25Z,42.805,6.029,13.2996,4.60018,2470.227,2022-1-15T14:11:56Z
2022-01-15T12:13:28Z,42.805,6.029,13.2992,4.60018,2470.227,2022-1-15T14:14:59Z
2022-01-15T12:16:31Z,42.805,6.029,13.2993,4.60019,2470.24,2022-1-15T14:18:02Z
2022-01-15T12:19:34Z,42.805,6.029,13.2996,4.60018,2470.24,2022-1-15T14:21:05Z
2022-01-15T12:22:37Z,42.805,6.029,13.2993,4.60019,2470.227,2022-1-15T14:24:08Z
2022-01-15T12:25:41Z,42.805,6.029,13.2996,4.60019,2470.24,2022-1-15T14:27:12Z
2022-01-15T12:28:44Z,42.805,6.029,13.2995,4.60019,2470.227,2022-1-15T14:30:15Z
2022-01-15T12:31:47Z,42.805,6.029,13.2993,4.60019,2470.227,2022-1-15T14:33:18Z
2022-01-15T12:34:50Z,42.805,6.029,13.2993,4.60019,2470.264,2022-1-15T14:36:21Z
2022-01-15T12:37:53Z,42.805,6.029,13.2991,4.60019,2470.25,2022-1-15T14:39:24Z
2022-01-15T12:40:56Z,42.805,6.029,13.2993,4.60019,2470.25,2022-1-15T14:42:27Z
2022-01-15T12:43:59Z,42.805,6.029,13.2993,4.60018,2470.213,2022-1-15T14:45:30Z
2022-01-15T12:47:02Z,42.805,6.029,13.2992,4.60019,2470.203,2022-1-15T14:48:33Z
2022-01-15T12:50:06Z,42.805,6.029,13.2996,4.60019,2470.25,2022-1-15T14:51:37Z
2022-01-15T12:53:09Z,42.805,6.029,13.2996,4.60019,2470.264,2022-1-15T14:54:40Z
2022-01-15T12:56:12Z,42.805,6.029,13.2994,4.60018,2470.227,2022-1-15T14:57:43Z
2022-01-15T12:59:15Z,42.805,6.029,13.2996,4.60019,2470.24,2022-1-15T15:00:46Z
2022-01-15T13:02:18Z,42.805,6.029,13.2996,4.60018,2470.273,2022-1-15T15:03:49Z
2022-01-15T13:05:21Z,42.805,6.029,13.2996,4.60018,2470.25,2022-1-15T15:06:52Z
2022-01-15T13:08:24Z,42.805,6.029,13.2994,4.60019,2470.25,2022-1-15T15:09:55Z
2022-01-15T13:11:27Z,42.805,6.029,13.2993,4.60019,2470.25,2022-1-15T15:12:58Z
2022-01-15T13:14:31Z,42.805,6.029,13.2994,4.60019,2470.217,2022-1-15T15:16:02Z
2022-01-15T13:17:34Z,42.805,6.029,13.2991,4.60019,2470.25,2022-1-15T15:19:05Z
2022-01-15T13:20:37Z,42.805,6.029,13.2995,4.60019,2470.25,2022-1-15T15:22:08Z
2022-01-15T13:23:40Z,42.805,6.029,13.2993,4.60019,2470.203,2022-1-15T15:25:11Z
2022-01-15T13:26:43Z,42.805,6.029,13.2996,4.60019,2470.264,2022-1-15T15:28:14Z
2022-01-15T13:29:46Z,42.805,6.029,13.2998,4.60019,2470.264,2022-1-15T15:31:17Z
2022-01-15T13:32:49Z,42.805,6.029,13.2992,4.60019,2470.24,2022-1-15T15:34:20Z
2022-01-15T13:35:52Z,42.805,6.029,13.2993,4.60019,2470.25,2022-1-15T15:37:23Z
2022-01-15T13:38:56Z,42.805,6.029,13.2998,4.60020,2470.24,2022-1-15T15:40:27Z
2022-01-15T13:41:59Z,42.805,6.029,13.2997,4.60017,2470.287,2022-1-15T15:43:30Z
2022-01-15T13:45:02Z,42.805,6.029,13.2995,4.60019,2470.287,2022-1-15T15:46:33Z
2022-01-15T13:48:05Z,42.805,6.029,13.2996,4.60020,2470.24,2022-1-15T15:49:36Z
2022-01-15T13:51:08Z,42.805,6.029,13.2992,4.60019,2470.264,2022-1-15T15:52:39Z
2022-01-15T13:54:11Z,42.805,6.029,13.2996,4.60019,2470.273,2022-1-15T15:55:42Z
2022-01-15T13:57:14Z,42.805,6.029,13.2992,4.60019,2470.273,2022-1-15T15:58:45Z
2022-01-15T14:00:17Z,42.805,6.029,13.2994,4.60019,2470.25,2022-1-15T16:01:49Z
2022-01-15T14:03:21Z,42.805,6.029,13.2996,4.60020,2470.264,2022-1-15T16:04:52Z
2022-01-15T14:06:24Z,42.805,6.029,13.2991,4.60020,2470.273,2022-1-15T16:07:55Z
2022-01-15T14:09:27Z,42.805,6.029,13.2995,4.60019,2470.264,2022-1-15T16:10:58Z
2022-01-15T14:12:30Z,42.805,6.029,13.2995,4.60019,2470.273,2022-1-15T16:14:01Z
2022-01-15T14:15:33Z,42.805,6.029,13.2995,4.60019,2470.25,2022-1-15T16:17:04Z
2022-01-15T14:18:36Z,42.805,6.029,13.3000,4.60019,2470.264,2022-1-15T16:20:07Z
2022-01-15T14:21:39Z,42.805,6.029,13.2996,4.60018,2470.273,2022-1-15T16:23:10Z
2022-01-15T14:24:42Z,42.805,6.029,13.2995,4.60019,2470.273,2022-1-15T16:26:14Z
2022-01-15T14:27:46Z,42.805,6.029,13.2994,4.60019,2470.287,2022-1-15T16:29:17Z
2022-01-15T14:30:49Z,42.805,6.029,13.2995,4.60020,2470.287,2022-1-15T16:32:20Z
2022-01-15T14:33:52Z,42.805,6.029,13.2993,4.60021,2470.287,2022-1-15T16:35:23Z
2022-01-15T14:36:55Z,42.805,6.029,13.2996,4.60020,2470.264,2022-1-15T16:38:26Z
2022-01-15T14:39:58Z,42.805,6.029,13.2996,4.60021,2470.297,2022-1-15T16:41:29Z
2022-01-15T14:43:01Z,42.805,6.029,13.2994,4.60019,2470.273,2022-1-15T16:44:32Z
2022-01-15T14:46:04Z,42.805,6.029,13.2996,4.60019,2470.25,2022-1-15T16:47:35Z
2022-01-15T14:49:08Z,42.805,6.029,13.2995,4.60019,2470.273,2022-1-15T16:50:39Z
2022-01-15T14:52:11Z,42.805,6.029,13.2993,4.60019,2470.31,2022-1-15T16:53:42Z
2022-01-15T14:55:14Z,42.805,6.029,13.2996,4.60020,2470.32,2022-1-15T16:56:45Z
2022-01-15T14:58:17Z,42.805,6.029,13.2992,4.60020,2470.287,2022-1-15T16:59:48Z
2022-01-15T15:01:20Z,42.805,6.029,13.2996,4.60021,2470.287,2022-1-15T17:02:51Z
2022-01-15T15:04:23Z,42.805,6.029,13.2995,4.60021,2470.273,2022-1-15T17:05:54Z
2022-01-15T15:07:26Z,42.805,6.029,13.2993,4.60021,2470.287,2022-1-15T17:08:57Z
2022-01-15T15:10:29Z,42.805,6.029,13.2997,4.60022,2470.273,2022-1-15T17:12:00Z
2022-01-15T15:13:33Z,42.805,6.029,13.2995,4.60021,2470.343,2022-1-15T17:15:04Z